Dewpoint
48 48 48 48 50 51 52 48 39 47 54 44 37 38 39 42 40 41 41 41 36 34 36 37 37 35 35 37 38 36 34 31 26 25 28 28 31 31 31 27 27 27 25 25
47 48 48 48 50 50 50 43 40 44 45 35 36 41 41 41 40 40 41 40 40 39 34 35 37 37 36 35 37 36 34 34 27 26 27 27 26 28 32 32 31 28 25 26
47 48 48 48 48 50 50 38 34 35 39 40 39 38 39 39 42 40 42 40 37 36 36 35 35 34 34 34 36 41 37 32 30 27 25 27 23 24 31 32 29 29 30 28
47 47 48 48 48 50 49 39 34 35 34 34 40 39 39 38 39 42 41 40 38 36 36 35 32 32 30 30 37 32 33 29 26 26 25 24 23 22 27 27 30 29 29 29
47 47 47 48 48 50 47 34 33 37 34 37 39 39 37 38 38 39 40 38 39 37 36 36 34 33 30 28 30 29 30 26 27 25 25 23 22 21 22 25 27 26 26 26
47 48 47 48 48 49 44 41 41 39 36 36 37 37 37 37 38 38 39 39 38 34 34 35 34 36 35 32 29 30 30 28 25 24 25 24 21 22 21 22 23 24 21 22
47 47 47 47 48 49 43 41 41 37 32 36 36 37 37 37 38 36 39 37 35 33 33 37 37 36 36 35 35 34 31 30 31 27 27 21 24 23 23 20 21 22 20 20
47 47 48 48 50 49 44 42 40 37 33 36 37 38 37 38 39 38 37 36 36 33 34 33 31 30 32 33 35 36 35 32 27 24 25 26 23 17 22 20 19 23 21 21
46 47 47 47 47 47 43 41 42 39 34 34 38 37 38 33 32 32 34 36 38 37 32 30 26 24 30 27 30 34 36 34 29 25 21 19 25 17 17 13 12 16 19 27
46 46 46 46 45 44 41 38 41 37 32 34 38 35 36 36 34 31 32 34 34 35 30 26 25 24 26 25 23 25 28 28 26 24 21 21 22 16 16 14 15 26 27 30
44 44 44 43 42 42 39 37 39 37 32 33 38 37 35 34 34 30 32 31 31 31 28 26 25 23 19 22 23 21 25 24 24 24 20 19 20 18 12 20 23 30 30 31
44 44 44 44 43 41 37 32 36 36 33 33 35 34 34 35 35 33 32 31 30 32 29 26 26 23 22 19 15 20 20 25 22 23 22 23 21 20 22 23 25 29 30 30
43 43 43 43 42 40 36 34 35 32 31 30 31 29 29 30 30 33 30 28 29 26 29 29 27 20 21 19 19 16 18 21 20 17 18 17 19 22 23 25 24 26 29 30
43 42 42 41 41 39 37 34 35 33 31 28 27 30 29 31 31 30 30 30 30 30 29 27 25 23 23 20 22 19 19 20 20 19 20 20 19 21 20 23 26 28 22 25
42 42 42 41 39 37 35 33 35 33 30 26 27 29 30 30 30 29 29 28 26 26 26 24 22 23 23 23 22 18 19 19 19 16 19 19 19 22 23 22 20 19 18 18
42 42 42 41 40 35 28 26 32 37 30 27 23 28 30 30 30 29 28 28 26 25 25 23 24 25 23 19 18 19 19 20 19 17 20 20 21 23 22 21 21 22 22 22
41 40 41 39 38 35 33 28 34 37 30 25 21 23 27 30 29 28 28 28 26 26 22 21 23 23 24 20 18 18 19 20 20 23 22 20 22 21 23 22 21 24 24 23
39 38 39 38 38 36 32 35 35 30 27 27 21 24 24 29 21 23 24 22 20 24 21 25 22 23 22 14 19 17 17 19 20 20 22 19 19 21 22 23 23 22 22 22
38 37 36 34 34 30 32 39 32 31 26 22 22 20 15 28 28 25 23 22 16 27 24 24 21 20 19 21 21 22 22 22 22 23 23 23 23 23 23 23 23 23 24 26
37 33 30 26 35 40 34 27 23 23 22 24 22 24 25 26 25 25 25 23 20 15 21 24 20 21 23 24 24 24 26 30 30 25 25 24 24 25 25 25 27 30 31 32
32 28 29 36 37 30 27 20 21 22 20 23 23 24 24 28 20 23 24 21 21 17 18 19 19 20 24 31 31 31 32 31 31 31 32 29 26 25 26 29 32 32 33 35
30 33 35 33 29 23 20 22 23 22 19 23 21 23 25 27 28 25 26 23 23 17 23 21 16 21 31 32 31 30 30 30 30 30 31 30 28 30 30 30 30 30 31 33
31 28 25 23 23 12 14 13 19 17 24 23 24 19 27 26 26 26 25 20 16 27 21 17 21 29 32 29 28 28 29 30 30 31 31 32 31 32 32 31 29 28 27 31
23 21 10 14 12 18 18 20 16 21 21 23 22 25 22 25 23 23 15 21 24 14 13 17 26 29 29 29 28 27 27 27 29 30 31 30 30 30 30 28 27 25 29 30
23 21 15 18 19 23 26 26 25 26 25 20 20 21 23 24 23 23 20 17 11 17 17 22 25 28 28 29 29 28 27 27 27 29 29 30 30 29 29 29 28 26 27 28
27 24 17 22 15 17 25 26 22 26 21 23 25 24 20 21 25 22 16 15 13 21 26 27 26 28 30 30 29 28 28 28 28 29 29 29 29 28 28 29 29 29 28 28
25 14 21 13 15 14 27 28 25 28 24 18 24 19 20 26 23 23 23 18 23 28 24 23 26 28 30 29 29 28 28 28 28 29 29 28 29 29 29 28 28 29 28 28
Lifted_Index
5 6 7 7 6 5 3 2 2 2 1 1 0 1 2 3 3 2 2 2 3 3 3 2 2 2 2 2 2 1 1 1 1 1 2 2 2 1 1 0 1 1 1 1
3 5 6 7 6 5 3 2 2 2 1 1 1 1 2 2 3 2 2 2 3 3 2 2 2 2 2 2 2 2 1 1 1 1 2 2 2 1 1 0 0 0 1 1
1 3 5 6 6 4 3 2 2 2 1 1 1 2 2 2 3 3 3 3 2 2 2 2 1 1 1 1 2 2 1 1 1 1 1 1 1 1 1 1 0 0 0 1
-0 1 4 5 5 4 2 2 2 2 2 1 1 1 2 2 2 2 3 3 2 2 1 1 1 1 1 1 1 1 1 1 1 1 1 1 1 1 1 1 1 1 0 0
-1 0 2 4 4 3 2 2 2 2 2 2 1 1 2 2 2 2 2 2 2 2 1 1 1 1 1 1 1 1 1 1 1 1 1 1 1 1 2 2 2 1 1 1
-1 0 2 3 3 2 2 2 2 2 2 1 1 1 2 2 2 2 2 2 2 2 2 2 1 1 1 1 1 1 1 1 1 1 1 1 1 2 2 2 2 1 1 1
-0 0 2 2 2 1 2 2 2 2 2 1 1 2 2 2 2 2 2 2 2 2 2 1 1 1 1 1 1 1 1 1 1 1 1 1 1 2 2 2 1 1 2 2
1 2 2 2 1 1 2 2 2 2 2 2 2 2 2 1 2 2 2 2 3 3 2 1 1 1 1 1 1 1 1 1 1 1 0 1 1 2 2 2 1 2 2 3
4 3 3 3 2 2 3 3 2 2 2 3 3 2 1 2 2 2 2 2 3 3 2 1 1 1 1 1 1 2 2 1 1 1 1 1 2 3 3 2 2 3 3 3
6 5 5 4 3 3 3 4 3 2 2 3 3 2 2 2 2 2 2 2 3 3 2 1 1 1 1 1 1 2 2 2 1 1 1 2 3 3 3 3 3 4 4 5
6 6 6 6 5 5 5 5 4 3 3 3 3 3 3 3 3 2 3 3 3 3 3 2 2 2 2 2 2 2 2 2 2 2 2 3 4 4 4 4 4 5 5 5
7 7 7 7 6 6 6 5 5 4 3 3 4 4 4 4 4 4 3 3 4 4 3 3 3 3 3 2 2 2 2 3 3 3 3 4 5 5 5 5 6 6 6 5
6 7 7 7 7 7 6 6 5 5 4 4 5 5 6 6 6 5 4 4 4 4 4 3 3 3 3 3 2 3 3 4 4 4 4 4 5 6 6 6 6 6 5 5
6 6 7 7 7 7 6 6 6 5 5 4 5 6 7 7 7 6 6 5 5 5 4 4 3 3 4 4 3 3 4 4 4 4 5 5 6 7 7 6 6 6 5 5
5 6 6 7 7 6 6 6 6 6 5 5 6 7 7 7 7 6 6 6 6 6 5 5 5 5 5 5 5 5 6 6 5 6 6 7 7 7 7 7 6 5 5 4
5 5 5 6 7 7 6 6 7 7 6 5 6 7 8 7 7 6 6 6 6 6 6 6 6 6 6 6 6 6 7 7 7 7 8 8 8 8 8 7 7 6 5 5
4 4 5 6 7 7 7 7 8 8 7 6 6 6 7 8 7 7 6 6 6 6 6 6 6 6 7 6 6 6 7 7 7 7 7 8 7 7 7 7 7 6 6 6
4 4 4 5 6 6 6 7 8 8 7 6 6 6 7 7 7 7 7 7 7 7 6 6 6 6 6 6 6 6 6 6 6 6 6 6 6 6 6 7 6 6 6 6
3 3 3 4 4 5 5 6 7 6 6 6 5 5 5 6 6 6 6 6 6 6 6 6 6 6 5 5 5 5 5 5 4 4 4 5 5 6 6 6 5 5 5 5
3 3 3 3 4 4 4 5 5 5 5 5 4 4 4 4 5 5 5 5 5 5 5 5 5 4 4 4 4 3 3 3 3 3 3 3 4 5 5 5 5 5 5 4
2 2 3 3 3 3 3 4 4 4 4 4 3 3 3 3 4 4 4 4 4 4 4 4 4 3 3 3 3 2 2 3 3 3 3 3 3 4 4 4 4 4 4 3
2 2 3 3 3 2 2 2 2 2 3 3 3 3 2 3 3 3 3 3 3 3 3 3 3 3 2 2 2 2 2 3 3 3 3 3 3 4 3 3 3 3 3 2
2 2 2 2 2 2 2 2 2 1 2 2 2 2 2 2 2 2 2 2 2 2 2 2 2 2 2 2 2 2 3 3 3 3 3 3 3 3 3 2 2 2 2 2
2 2 2 2 2 2 1 1 1 1 1 1 2 2 1 1 2 2 2 2 2 2 2 2 2 2 2 3 3 3 3 4 4 4 4 3 3 3 2 2 2 2 2 2
2 2 2 1 1 1 1 1 1 1 1 1 1 1 1 1 1 1 2 2 2 2 2 2 2 2 3 3 3 3 4 4 5 5 5 4 4 3 2 2 2 2 2 2
2 2 1 1 1 1 1 1 1 1 1 1 1 1 1 1 1 1 1 1 1 1 1 2 2 3 3 4 4 4 4 5 6 6 6 5 4 3 3 2 2 2 3 3
2 2 1 1 1 1 1 1 1 1 1 1 1 1 1 1 1 1 1 1 1 1 1 2 2 3 4 4 4 4 5 5 6 6 6 6 5 4 3 2 2 2 3 3